| time (UTC) | temp F | wind direction | speed MPH | gust MPH | rain 1hr in | rain 24hr in | rain mn in | humidity % | barometer mb |
| 20260901083036 | 78 | 0 | 0.0 | 0.0 | 0.00 | 0.81 | 0.00 | 98 | 1016.2 |
| 20260901081533 | 78 | 0 | 0.0 | 0.0 | 0.00 | 0.81 | 0.00 | 98 | 1016.2 |
| 20260901080033 | 78 | 0 | 0.0 | 0.0 | 0.00 | 0.81 | 0.00 | 98 | 1016.2 |
| 20260901074536 | 78 | 0 | 0.0 | 0.0 | 0.00 | 0.81 | 0.00 | 98 | 1016.5 |
| 20260901073034 | 78 | 0 | 0.0 | 0.0 | 0.00 | 0.81 | 0.00 | 98 | 1016.7 |
| 20260901071534 | 78 | 0 | 0.0 | 0.0 | 0.00 | 0.81 | 0.00 | 98 | 1016.7 |
| 20260901070035 | 78 | 0 | 0.0 | 1.0 | 0.00 | 0.81 | 0.00 | 98 | 1016.8 |
| 20260901064538 | 78 | 307 | 0.0 | 2.0 | 0.00 | 0.81 | 0.00 | 98 | 1016.7 |
| 20260901063037 | 78 | 0 | 0.0 | 1.0 | 0.00 | 0.81 | 0.00 | 98 | 1017.1 |
| 20260901061534 | 78 | 0 | 0.0 | 0.0 | 0.00 | 0.81 | 0.00 | 98 | 1017.1 |
| 20260901060035 | 77 | 0 | 0.0 | 1.0 | 0.00 | 0.81 | 0.00 | 98 | 1017.0 |
| 20260901054531 | 77 | 0 | 0.0 | 0.0 | 0.00 | 0.81 | 0.00 | 98 | 1016.8 |
| 20260901053031 | 77 | 0 | 0.0 | 1.0 | 0.00 | 0.81 | 0.00 | 97 | 1017.3 |
| 20260901051536 | 77 | 0 | 0.0 | 0.0 | 0.00 | 0.81 | 0.00 | 97 | 1017.4 |
| 20260901050035 | 77 | 0 | 0.0 | 0.0 | 0.00 | 0.81 | 0.00 | 97 | 1017.6 |
| 20260901044533 | 77 | 0 | 0.0 | 1.0 | 0.01 | 0.81 | 0.00 | 97 | 1017.6 |
| 20260901043038 | 77 | 0 | 0.0 | 1.0 | 0.01 | 0.81 | 0.00 | 97 | 1017.9 |
| 20260901041533 | 77 | 0 | 0.0 | 2.0 | 0.01 | 0.81 | 0.00 | 97 | 1018.2 |
| 20260901040044 | 76 | 0 | 0.0 | 1.0 | 0.01 | 0.81 | 0.00 | 97 | 1018.3 |
| 20260901034536 | 76 | 72 | 0.0 | 1.0 | 0.02 | 0.80 | 0.80 | 96 | 1018.4 |
| 20260901033048 | 76 | 72 | 0.0 | 1.0 | 0.14 | 0.80 | 0.80 | 96 | 1018.7 |
| 20260901031534 | 75 | 0 | 0.0 | 1.0 | 0.61 | 0.80 | 0.80 | 96 | 1018.8 |
| 20260901030032 | 75 | 67 | 1.0 | 5.0 | 0.63 | 0.80 | 0.80 | 96 | 1019.0 |
| 20260901024541 | 75 | 0 | 0.0 | 9.0 | 0.60 | 0.77 | 0.77 | 95 | 1019.0 |
| 20260901023035 | 75 | 46 | 0.0 | 14.0 | 0.47 | 0.63 | 0.63 | 94 | 1019.4 |
| 20260901021532 | 78 | 58 | 5.0 | 18.0 | 0.02 | 0.18 | 0.18 | 91 | 1019.5 |
| 20260901020031 | 79 | 57 | 3.0 | 10.0 | 0.01 | 0.17 | 0.17 | 89 | 1019.2 |
| 20260901014533 | 80 | 60 | 2.0 | 8.0 | 0.01 | 0.17 | 0.17 | 91 | 1018.6 |
| 20260901013033 | 81 | 0 | 0.0 | 0.0 | 0.00 | 0.16 | 0.16 | 93 | 1018.3 |
| 20260901011536 | 81 | 0 | 0.0 | 1.0 | 0.00 | 0.16 | 0.16 | 93 | 1017.8 |
| 20260901010040 | 80 | 352 | 0.0 | 1.0 | 0.00 | 0.16 | 0.16 | 94 | 1017.8 |
| 20260901004533 | 80 | 0 | 0.0 | 0.0 | 0.00 | 0.16 | 0.16 | 94 | 1017.8 |
| 20260901003033 | 81 | 0 | 0.0 | 0.0 | 0.00 | 0.16 | 0.16 | 95 | 1017.7 |
| 20260901001533 | 81 | 0 | 0.0 | 1.0 | 0.00 | 0.16 | 0.16 | 95 | 1017.5 |
| 20260901000036 | 81 | 0 | 0.0 | 1.0 | 0.00 | 0.16 | 0.16 | 95 | 1017.4 |
| 20260831234538 | 81 | 0 | 0.0 | 3.0 | 0.04 | 0.16 | 0.16 | 95 | 1017.4 |
| 20260831233035 | 81 | 304 | 0.0 | 0.0 | 0.10 | 0.16 | 0.16 | 95 | 1017.1 |
| 20260831231534 | 80 | 0 | 0.0 | 1.0 | 0.11 | 0.16 | 0.16 | 94 | 1017.3 |
| 20260831230032 | 80 | 302 | 0.0 | 3.0 | 0.11 | 0.16 | 0.16 | 91 | 1017.3 |
| 20260831224534 | 82 | 303 | 1.0 | 5.0 | 0.06 | 0.11 | 0.11 | 88 | 1017.6 |
| 20260831223034 | 86 | 49 | 1.0 | 7.0 | 0.01 | 0.06 | 0.06 | 83 | 1017.4 |
| 20260831221536 | 87 | 91 | 0.0 | 6.0 | 0.00 | 0.05 | 0.05 | 80 | 1017.2 |
| 20260831220032 | 87 | 75 | 0.0 | 7.0 | 0.00 | 0.05 | 0.05 | 79 | 1017.0 |
| 20260831214542 | 88 | 113 | 2.0 | 6.0 | 0.00 | 0.05 | 0.05 | 78 | 1016.7 |
| 20260831213040 | 88 | 140 | 0.0 | 7.0 | 0.00 | 0.05 | 0.05 | 77 | 1016.7 |
| 20260831211531 | 89 | 0 | 2.0 | 4.0 | 0.00 | 0.05 | 0.05 | 74 | 1016.7 |
| 20260831210033 | 89 | 0 | 1.0 | 6.0 | 0.00 | 0.05 | 0.05 | 76 | 1016.8 |
| 20260831204534 | 89 | 0 | 0.0 | 5.0 | 0.00 | 0.05 | 0.05 | 75 | 1017.1 |
| 20260831203053 | 90 | 137 | 2.0 | 7.0 | 0.00 | 0.05 | 0.05 | 73 | 1017.1 |
| 20260831201532 | 91 | 153 | 4.0 | 10.0 | 0.00 | 0.05 | 0.05 | 71 | 1017.0 |
| 20260831200037 | 91 | 140 | 2.0 | 7.0 | 0.00 | 0.05 | 0.05 | 69 | 1016.8 |
| 20260831194531 | 91 | 124 | 3.0 | 9.0 | 0.00 | 0.05 | 0.05 | 72 | 1016.9 |
| 20260831193031 | 90 | 72 | 4.0 | 7.0 | 0.00 | 0.05 | 0.05 | 73 | 1017.3 |
| 20260831191533 | 89 | 121 | 3.0 | 7.0 | 0.00 | 0.05 | 0.05 | 73 | 1017.5 |
| 20260831190051 | 91 | 135 | 1.0 | 5.0 | 0.00 | 0.05 | 0.05 | 70 | 1017.7 |
| 20260831184534 | 90 | 122 | 1.0 | 3.0 | 0.03 | 0.05 | 0.05 | 70 | 1017.7 |
| 20260831183030 | 90 | 304 | 0.0 | 2.0 | 0.04 | 0.05 | 0.05 | 71 | 1017.7 |
| 20260831181549 | 88 | 304 | 0.0 | 3.0 | 0.04 | 0.05 | 0.05 | 76 | 1018.0 |
| 20260831180035 | 85 | 0 | 0.0 | 1.0 | 0.04 | 0.05 | 0.05 | 84 | 1018.3 |
| 20260831174540 | 84 | 63 | 1.0 | 5.0 | 0.01 | 0.02 | 0.02 | 82 | 1018.4 |
| 20260831173034 | 86 | 297 | 4.0 | 7.0 | 0.00 | 0.01 | 0.01 | 68 | 1018.9 |
| 20260831171535 | 89 | 263 | 3.0 | 11.0 | 0.00 | 0.01 | 0.01 | 68 | 1018.8 |
| 20260831170039 | 91 | 106 | 3.0 | 7.0 | 0.00 | 0.01 | 0.01 | 72 | 1018.9 |
| 20260831164533 | 91 | 136 | 2.0 | 7.0 | 0.00 | 0.01 | 0.01 | 74 | 1018.7 |
| 20260831163032 | 90 | 83 | 2.0 | 9.0 | 0.00 | 0.01 | 0.01 | 74 | 1018.6 |
| 20260831161538 | 91 | 142 | 4.0 | 9.0 | 0.00 | 0.01 | 0.01 | 72 | 1019.0 |
| 20260831160050 | 91 | 137 | 3.0 | 9.0 | 0.00 | 0.01 | 0.01 | 73 | 1019.1 |
| 20260831154601 | 90 | 79 | 2.0 | 6.0 | 0.00 | 0.01 | 0.01 | 74 | 1019.1 |
| 20260831153111 | 91 | 130 | 2.0 | 6.0 | 0.00 | 0.01 | 0.01 | 75 | 1019.2 |
| 20260831151536 | 90 | 133 | 2.0 | 8.0 | 0.00 | 0.01 | 0.01 | 76 | 1019.2 |
| 20260831150037 | 88 | 168 | 1.0 | 6.0 | 0.00 | 0.01 | 0.01 | 80 | 1019.1 |
| 20260831144533 | 88 | 49 | 2.0 | 6.0 | 0.00 | 0.01 | 0.01 | 79 | 1018.9 |
| 20260831143032 | 87 | 141 | 2.0 | 6.0 | 0.00 | 0.01 | 0.01 | 82 | 1018.8 |
| 20260831141542 | 86 | 133 | 0.0 | 4.0 | 0.00 | 0.01 | 0.01 | 84 | 1018.7 |
| 20260831140035 | 86 | 0 | 0.0 | 3.0 | 0.00 | 0.01 | 0.01 | 85 | 1018.5 |
| 20260831134534 | 86 | 0 | 0.0 | 3.0 | 0.01 | 0.01 | 0.01 | 82 | 1018.6 |
| 20260831133035 | 87 | 0 | 0.0 | 2.0 | 0.01 | 0.01 | 0.01 | 80 | 1018.3 |
| 20260831131537 | 88 | 115 | 1.0 | 5.0 | 0.01 | 0.01 | 0.01 | 79 | 1018.3 |
| 20260831130042 | 88 | 119 | 0.0 | 5.0 | 0.01 | 0.01 | 0.01 | 80 | 1018.0 |
| 20260831124533 | 87 | 0 | 1.0 | 5.0 | 0.00 | 0.00 | 0.00 | 81 | 1018.1 |
| 20260831123043 | 87 | 0 | 0.0 | 4.0 | 0.00 | 0.00 | 0.00 | 83 | 1018.0 |
| 20260831121541 | 86 | 63 | 0.0 | 2.0 | 0.00 | 0.00 | 0.00 | 85 | 1017.9 |
| 20260831120100 | 84 | 0 | 0.0 | 2.0 | 0.00 | 0.00 | 0.00 | 88 | 1017.8 |
| 20260831114534 | 82 | 0 | 0.0 | 1.0 | 0.00 | 0.00 | 0.00 | 90 | 1017.7 |
| 20260831113036 | 82 | 0 | 0.0 | 1.0 | 0.00 | 0.00 | 0.00 | 91 | 1017.7 |
| 20260831111538 | 82 | 63 | 0.0 | 2.0 | 0.00 | 0.00 | 0.00 | 90 | 1017.3 |
| 20260831110036 | 82 | 64 | 0.0 | 2.0 | 0.00 | 0.00 | 0.00 | 90 | 1017.1 |
| 20260831104538 | 82 | 0 | 0.0 | 2.0 | 0.00 | 0.00 | 0.00 | 89 | 1016.8 |
| 20260831103042 | 82 | 63 | 0.0 | 2.0 | 0.00 | 0.00 | 0.00 | 89 | 1016.7 |
| 20260831101535 | 82 | 0 | 0.0 | 4.0 | 0.00 | 0.00 | 0.00 | 89 | 1016.8 |
| 20260831100043 | 82 | 0 | 0.0 | 4.0 | 0.00 | 0.00 | 0.00 | 88 | 1016.8 |
| 20260831094534 | 82 | 77 | 0.0 | 6.0 | 0.00 | 0.00 | 0.00 | 88 | 1016.6 |
| 20260831093036 | 82 | 0 | 0.0 | 2.0 | 0.00 | 0.00 | 0.00 | 88 | 1016.5 |
| 20260831091531 | 82 | 0 | 0.0 | 3.0 | 0.00 | 0.00 | 0.00 | 88 | 1016.3 |
| 20260831090032 | 82 | 58 | 0.0 | 2.0 | 0.00 | 0.00 | 0.00 | 89 | 1016.4 |
| 20260831084539 | 82 | 0 | 0.0 | 1.0 | 0.00 | 0.00 | 0.00 | 90 | 1016.4 |